LROP Weather Reports


time (UTC)temp
C
wind
direction
speed
KPH
gust
KPH
rain 1hr
cm
rain 24hr
cm
rain mn
cm
humidity
%
barometer
mb
20260508191802 21 110 11.3 0.0 0.00 0.00 0.00 64 1014.0
20260508190302 21 110 11.3 0.0 0.00 0.00 0.00 64 1014.0
20260508184802 20 120 8.0 0.0 0.00 0.00 0.00 73 1013.0
20260508183302 20 120 8.0 0.0 0.00 0.00 0.00 73 1013.0
20260508181805 20 130 11.3 0.0 0.00 0.00 0.00 73 1013.0
20260508180302 20 130 11.3 0.0 0.00 0.00 0.00 73 1013.0
20260508174803 22 120 12.9 0.0 0.00 0.00 0.00 61 1013.0
20260508173302 22 120 12.9 0.0 0.00 0.00 0.00 61 1013.0
20260508171802 22 130 11.3 0.0 0.00 0.00 0.00 61 1013.0
20260508170302 22 130 11.3 0.0 0.00 0.00 0.00 61 1013.0
20260508164802 22 150 11.3 0.0 0.00 0.00 0.00 57 1012.0
20260508163303 22 150 11.3 0.0 0.00 0.00 0.00 57 1012.0
20260508161802 25 140 11.3 0.0 0.00 0.00 0.00 44 1013.0
20260508160302 25 140 11.3 0.0 0.00 0.00 0.00 44 1013.0
20260508154802 25 190 12.9 0.0 0.00 0.00 0.00 44 1013.0
20260508153302 25 190 12.9 0.0 0.00 0.00 0.00 44 1013.0
20260508151802 26 150 16.1 0.0 0.00 0.00 0.00 45 1013.0
20260508150302 26 150 16.1 0.0 0.00 0.00 0.00 45 1013.0
20260508144803 27 100 4.8 0.0 0.00 0.00 0.00 34 1013.0
20260508143302 27 100 4.8 0.0 0.00 0.00 0.00 34 1013.0
20260508141802 26 80 4.8 0.0 0.00 0.00 0.00 42 1013.0
20260508140302 26 80 4.8 0.0 0.00 0.00 0.00 42 1013.0
20260508134915 27 70 9.7 0.0 0.00 0.00 0.00 37 1013.0
20260508133301 27 70 9.7 0.0 0.00 0.00 0.00 37 1013.0
20260508131802 26 4.8 0.0 0.00 0.00 0.00 39 1014.0
20260508130303 26 4.8 0.0 0.00 0.00 0.00 39 1014.0
20260508124801 26 220 8.0 0.0 0.00 0.00 0.00 39 1014.0
20260508123302 26 220 8.0 0.0 0.00 0.00 0.00 39 1014.0
20260508121810 27 3.2 0.0 0.00 0.00 0.00 39 1014.0
20260508120301 27 3.2 0.0 0.00 0.00 0.00 39 1014.0
20260508114802 25 3.2 0.0 0.00 0.00 0.00 42 1014.0
20260508113302 25 3.2 0.0 0.00 0.00 0.00 42 1014.0
20260508111802 23 290 8.0 0.0 0.00 0.00 0.00 50 1015.0
20260508110302 23 290 8.0 0.0 0.00 0.00 0.00 50 1015.0
20260508104804 25 9.7 0.0 0.00 0.00 0.00 47 1015.0
20260508103314 25 9.7 0.0 0.00 0.00 0.00 51 1015.0
20260508101802 25 9.7 0.0 0.00 0.00 0.00 51 1015.0
20260508100302 25 9.7 0.0 0.00 0.00 0.00 51 1015.0
20260508094802 25 8.0 0.0 0.00 0.00 0.00 44 1015.0
20260508093302 25 8.0 0.0 0.00 0.00 0.00 44 1015.0
20260508091801 23 3.2 0.0 0.00 0.00 0.00 50 1016.0
20260508090302 23 3.2 0.0 0.00 0.00 0.00 50 1016.0
20260508084801 22 330 4.8 0.0 0.00 0.00 0.00 61 1016.0
20260508083302 22 330 4.8 0.0 0.00 0.00 0.00 61 1016.0
20260508081802 21 4.8 0.0 0.00 0.00 0.00 64 1016.0
20260508080301 21 4.8 0.0 0.00 0.00 0.00 64 1016.0
20260508074801 18 1.6 0.0 0.00 0.00 0.00 68 1016.0
20260508073302 18 1.6 0.0 0.00 0.00 0.00 68 1016.0
20260508071802 17 70 4.8 0.0 0.00 0.00 0.00 78 1016.0
20260508070302 17 70 4.8 0.0 0.00 0.00 0.00 78 1016.0
20260508064803 17 60 4.8 0.0 0.00 0.00 0.00 77 1016.0
20260508063302 17 60 4.8 0.0 0.00 0.00 0.00 77 1016.0
20260508061802 16 0 0.0 0.0 0.00 0.00 0.00 83 1016.0
20260508060302 16 0 0.0 0.0 0.00 0.00 0.00 83 1016.0
20260508054803 15 1.6 0.0 0.00 0.00 0.00 82 1016.0
20260508053302 15 1.6 0.0 0.00 0.00 0.00 82 1016.0
20260508051803 13 310 4.8 0.0 0.00 0.00 0.00 88 1016.0
20260508050302 13 310 4.8 0.0 0.00 0.00 0.00 88 1016.0
20260508044802 15 1.6 0.0 0.00 0.00 0.00 77 1016.0
20260508043301 15 1.6 0.0 0.00 0.00 0.00 77 1016.0
20260508041803 12 80 4.8 0.0 0.00 0.00 0.00 88 1015.0
20260508040302 12 80 4.8 0.0 0.00 0.00 0.00 88 1015.0
20260508034802 12 70 4.8 0.0 0.00 0.00 0.00 88 1015.0
20260508033302 12 70 4.8 0.0 0.00 0.00 0.00 88 1015.0
20260508031802 12 100 8.0 0.0 0.00 0.00 0.00 88 1015.0
20260508030302 12 100 8.0 0.0 0.00 0.00 0.00 88 1015.0
20260508024802 12 70 3.2 0.0 0.00 0.00 0.00 94 1015.0
20260508023302 12 70 3.2 0.0 0.00 0.00 0.00 94 1015.0
20260508021802 12 90 8.0 0.0 0.00 0.00 0.00 88 1015.0
20260508020302 12 90 8.0 0.0 0.00 0.00 0.00 88 1015.0
20260508014802 12 60 4.8 0.0 0.00 0.00 0.00 88 1015.0
20260508013302 12 60 4.8 0.0 0.00 0.00 0.00 88 1015.0
20260508011802 12 60 8.0 0.0 0.00 0.00 0.00 88 1015.0
20260508010302 12 60 8.0 0.0 0.00 0.00 0.00 88 1015.0
20260508004802 13 60 9.7 0.0 0.00 0.00 0.00 88 1015.0
20260508003302 13 60 9.7 0.0 0.00 0.00 0.00 88 1015.0
20260508001801 13 40 11.3 0.0 0.00 0.00 0.00 88 1015.0
20260508000304 13 40 11.3 0.0 0.00 0.00 0.00 88 1015.0
20260507234803 15 40 12.9 0.0 0.00 0.00 0.00 82 1015.0
20260507233302 15 40 12.9 0.0 0.00 0.00 0.00 82 1015.0
20260507231802 15 60 8.0 0.0 0.00 0.00 0.00 82 1015.0
20260507230302 15 60 8.0 0.0 0.00 0.00 0.00 82 1015.0
20260507224802 16 60 8.0 0.0 0.00 0.00 0.00 83 1015.0
20260507223416 16 60 8.0 0.0 0.00 0.00 0.00 83
20260507221802 17 20 11.3 0.0 0.00 0.00 0.00 77 1015.0
20260507220301 17 20 11.3 0.0 0.00 0.00 0.00 77 1015.0
20260507214802 17 310 8.0 0.0 0.00 0.00 0.00 83 1015.0
20260507213303 17 310 8.0 0.0 0.00 0.00 0.00 83 1015.0
20260507211802 17 1.6 0.0 0.00 0.00 0.00 83 1015.0
20260507210302 17 1.6 0.0 0.00 0.00 0.00 83 1015.0
20260507204802 17 110 4.8 0.0 0.00 0.00 0.00 83 1015.0
20260507203302 17 110 4.8 0.0 0.00 0.00 0.00 83 1015.0
20260507201802 17 90 4.8 0.0 0.00 0.00 0.00 78 1015.0
20260507200302 17 90 4.8 0.0 0.00 0.00 0.00 78 1015.0
20260507194808 17 0 0.0 0.0 0.00 0.00 0.00 73 1015.0
20260507193302 17 0 0.0 0.0 0.00 0.00 0.00 73 1015.0